GFSNIL_925_spd_000.txt.gz
Wind_Speed
13 16 18 18 20 19 19 19 18 21 24 26 26 27 28 29 31 31 34 35 33 32
11 13 16 17 18 19 20 20 20 21 24 27 28 29 28 30 32 30 31 33 36 35
10 11 13 16 18 19 21 21 21 22 24 26 27 28 29 30 30 29 30 30 30 32
15 13 12 13 15 17 19 20 22 24 25 28 29 29 30 32 31 30 31 31 31 33
18 18 16 16 16 16 17 18 21 23 26 28 29 30 31 33 33 33 32 34 32 33
19 21 21 20 20 19 18 19 21 22 25 28 30 29 32 33 36 35 35 34 34 36
17 17 17 19 21 22 22 21 23 23 25 27 29 29 32 33 35 36 36 35 35 36
18 19 20 21 23 25 25 24 23 25 26 26 27 29 29 31 33 35 35 34 34 37
20 22 24 25 27 28 28 27 25 25 25 28 28 31 33 33 32 32 33 34 34 36
21 22 23 25 26 26 28 30 30 30 28 30 28 32 33 34 36 37 34 33 32 31
22 24 25 25 26 28 28 28 30 29 30 32 32 34 33 34 33 32 34 35 31 30
24 25 26 27 28 29 29 30 30 30 29 28 34 35 34 34 29 29 32 35 32 31
25 26 27 28 29 29 29 30 30 31 29 29 29 33 33 33 29 29 28 27 29 33
24 25 25 27 27 29 29 29 30 30 29 28 26 29 30 31 30 28 27 25 25 25

GFSNIL_925_spd_003.txt.gz
Wind_Speed
12 12 14 15 17 18 19 19 19 21 24 28 30 30 31 31 33 33 35 36 35 34
13 13 14 16 17 19 20 20 20 21 23 25 28 30 30 31 32 32 33 35 37 37
15 15 15 14 15 17 19 20 21 22 23 25 26 27 28 29 31 32 34 35 34 35
15 15 16 16 17 17 18 18 19 21 23 24 25 26 27 30 32 33 34 34 34 35
16 16 18 18 19 18 19 20 20 21 22 24 25 25 26 29 31 33 34 35 34 36
21 22 23 25 26 26 26 26 25 23 23 24 24 26 27 29 32 33 34 35 35 36
21 22 23 25 26 27 28 29 29 30 28 27 26 26 27 28 31 34 34 36 35 36
22 22 23 23 24 26 28 29 30 30 31 31 30 26 27 27 28 31 33 36 36 39
22 24 26 26 28 28 28 29 29 30 30 30 29 31 35 35 29 30 32 34 37 38
22 23 23 25 26 26 27 29 29 30 30 31 32 34 37 36 31 29 31 32 35 36
25 25 26 26 26 27 27 26 27 28 28 30 31 34 35 39 31 29 28 29 32 33
26 26 26 26 26 28 28 28 27 28 29 29 29 30 32 36 31 31 30 26 30 31
27 27 28 28 29 28 29 28 28 28 26 26 29 30 31 36 32 30 31 32 28 27
27 28 27 29 28 30 30 30 28 28 26 26 28 30 33 34 33 29 30 29 33 29

GFSNIL_925_spd_006.txt.gz
Wind_Speed
20 20 19 20 21 22 23 24 24 25 22 29 31 32 33 34 34 34 33 35 36 35
21 22 21 21 20 21 22 23 24 24 24 26 26 27 32 32 33 34 34 35 35 35
20 20 21 23 24 24 25 25 25 24 23 24 25 26 28 30 32 33 33 34 33 35
23 23 23 25 26 28 29 30 30 30 29 26 27 28 28 29 31 31 33 34 33 35
20 22 23 24 26 27 27 28 29 31 30 29 29 29 29 31 30 30 30 31 34 37
21 22 24 25 26 27 28 30 30 30 29 29 30 31 31 30 30 29 28 28 30 33
22 23 25 27 28 28 28 29 29 30 31 31 31 31 32 30 29 28 28 29 30 32
22 24 26 30 31 31 31 30 31 31 31 31 29 27 32 36 33 29 29 30 31 33
21 23 24 25 27 28 29 30 32 32 30 32 30 32 37 36 30 28 27 28 33 33
25 25 26 26 26 27 27 29 28 29 30 30 34 34 35 32 32 27 29 29 30 34
24 24 26 26 26 28 28 27 29 29 28 30 29 28 30 34 30 31 31 30 30 30
24 25 26 27 28 29 29 27 28 27 30 29 28 28 29 33 30 29 31 29 30 32
25 26 27 28 29 30 29 31 28 30 29 30 28 29 30 32 27 28 29 32 33 33
25 27 27 29 30 29 33 30 33 30 30 28 27 31 31 33 31 25 31 32 33 34

GFSNIL_925_spd_009.txt.gz
Wind_Speed
21 21 21 22 23 23 25 25 26 27 26 26 25 21 22 29 34 35 36 36 34 35
23 22 23 23 24 26 27 27 28 27 27 27 27 28 29 26 25 28 32 34 35 35
22 23 24 25 28 28 30 31 31 32 32 31 30 28 28 30 31 31 30 27 28 31
22 23 23 24 26 28 29 31 32 32 32 31 31 31 31 31 30 30 31 32 31 29
22 24 26 28 30 30 27 28 28 29 30 30 30 30 30 30 31 28 27 27 28 28
26 26 28 31 32 33 32 31 30 29 29 29 30 30 29 29 26 29 27 26 27 28
25 26 29 32 32 32 32 31 31 31 32 31 30 30 29 33 33 29 26 26 27 28
22 27 30 30 31 32 32 32 33 35 32 34 32 27 36 36 29 25 26 26 28 29
27 29 28 29 30 30 31 31 33 33 33 34 30 36 37 32 24 25 27 29 30 29
26 26 26 28 28 29 29 31 31 28 32 31 33 34 36 28 31 30 30 28 31 31
27 26 27 28 28 29 28 29 28 30 31 31 33 33 27 31 29 30 31 30 29 29
25 26 26 27 28 28 29 28 31 30 31 33 32 27 28 36 32 30 31 30 27 33
24 26 26 27 28 28 28 30 28 31 29 29 26 27 34 36 30 31 30 28 33 33
24 26 25 27 29 28 28 29 28 28 29 25 26 32 34 33 32 30 30 31 33 35

GFSNIL_925_spd_012.txt.gz
Wind_Speed
19 20 20 21 22 23 25 25 27 28 28 29 29 30 30 30 28 26 26 28 29 30
21 22 22 22 24 26 27 28 30 30 31 31 32 31 30 28 29 29 28 29 28 27
19 20 21 23 25 27 28 28 29 29 29 30 31 31 31 28 28 29 28 25 28 27
17 19 21 25 27 27 27 27 27 27 27 27 29 30 30 29 27 26 26 29 26 28
18 21 25 28 29 29 29 29 28 26 26 28 28 29 30 31 26 30 27 28 26 25
20 23 25 27 28 29 29 30 28 28 29 29 27 30 31 25 31 30 28 28 24 24
20 23 25 27 29 30 30 29 30 31 32 29 31 30 26 33 31 29 26 22 26 26
21 24 26 29 30 30 29 29 29 32 33 29 33 27 35 37 35 26 27 26 26 26
24 27 29 30 31 31 32 32 32 31 31 33 32 31 37 37 27 27 27 29 31 30
26 27 28 28 28 28 28 30 30 29 30 32 31 33 34 28 32 31 32 31 33 35
27 27 27 27 27 29 28 28 29 30 30 31 32 31 30 31 34 33 31 29 33 34
25 27 27 27 29 30 29 29 28 28 31 31 32 28 33 36 33 30 30 31 32 31
24 26 28 28 29 28 28 28 29 31 29 30 32 31 33 34 31 29 29 29 27 31
25 27 24 26 29 29 29 28 28 29 30 29 27 32 32 33 32 29 30 30 30 34

GFSNIL_925_spd_015.txt.gz
Wind_Speed
17 17 18 18 20 21 22 23 25 27 27 28 29 30 30 30 29 27 29 27 28 26
16 16 17 18 19 21 23 23 25 25 26 28 29 29 29 27 28 29 28 26 26 27
15 16 18 20 22 23 24 25 26 26 27 27 28 27 28 28 29 27 24 26 28 28
15 18 20 22 23 24 25 26 27 27 26 28 28 27 30 30 26 25 29 29 27 28
15 19 22 24 25 26 27 27 27 27 28 28 28 26 30 31 24 29 28 30 29 25
19 21 22 24 26 27 27 28 29 29 28 28 28 28 31 23 30 29 30 26 26 29
20 21 22 24 25 27 27 28 29 29 28 27 27 29 26 30 31 31 25 26 26 27
18 20 22 24 25 27 28 30 31 33 34 31 31 26 32 32 31 25 29 29 30 29
20 22 24 26 28 29 31 31 33 32 31 30 28 30 31 31 30 30 31 32 31 30
21 24 26 27 28 29 30 30 30 29 28 29 31 30 32 31 32 31 31 30 32 34
23 24 26 27 28 29 28 27 28 28 28 31 31 31 32 32 33 31 30 30 33 33
22 24 27 27 29 30 29 27 27 26 29 29 32 31 31 34 32 30 31 31 29 31
21 24 26 25 27 28 26 26 27 28 26 28 30 29 32 33 30 30 29 28 27 32
22 24 23 24 26 29 28 26 25 27 28 27 26 30 32 32 33 29 29 27 32 33

GFSNIL_925_spd_018.txt.gz
Wind_Speed
18 18 18 18 19 19 20 21 23 24 25 25 26 26 25 27 28 25 28 24 27 26
16 17 17 16 17 18 19 21 22 23 24 25 26 26 24 27 28 27 24 27 26 26
14 15 16 18 20 20 20 21 23 24 26 27 28 29 26 30 30 24 24 26 27 27
15 16 16 18 19 20 21 22 23 24 27 28 29 30 28 30 25 27 28 26 27 25
14 16 18 19 20 21 22 23 26 27 28 30 29 28 29 26 24 26 26 27 24 25
17 18 20 20 21 23 24 26 28 29 29 29 28 29 28 24 27 27 27 24 25 27
16 17 19 20 22 24 25 26 28 29 30 30 30 29 25 29 29 29 25 25 27 28
15 17 19 22 24 24 26 27 29 31 32 30 28 23 30 31 30 30 28 29 28 28
17 20 21 23 24 27 29 30 32 32 32 32 28 29 29 30 31 29 30 30 32 32
19 20 22 25 26 28 29 31 33 33 33 32 30 28 30 30 30 30 30 31 32 33
18 21 24 25 26 28 30 31 32 31 29 30 29 28 30 30 30 30 30 30 31 30
18 21 24 26 27 29 31 31 30 26 28 28 30 29 28 32 31 29 30 30 30 29
18 22 25 24 25 28 29 28 28 30 25 25 29 28 30 32 30 29 30 31 26 33
20 23 22 24 25 29 30 27 27 27 28 26 25 27 31 32 32 29 30 27 33 35

GFSNIL_925_spd_021.txt.gz
Wind_Speed
17 17 17 17 17 16 16 15 19 20 20 21 22 21 20 17 20 19 17 15 21 21
17 17 16 16 16 16 16 15 19 20 21 22 22 21 21 18 19 17 15 20 19 21
15 15 14 15 16 17 18 19 20 20 20 21 20 19 19 19 18 19 21 22 23 20
12 12 13 15 16 16 17 18 19 19 19 19 20 21 21 21 20 22 23 22 24 20
11 13 15 15 15 16 17 18 18 19 20 20 21 21 21 21 22 23 24 26 23 24
13 14 14 15 16 16 18 20 22 22 21 20 21 22 21 22 24 24 25 25 25 28
11 12 14 15 17 19 21 21 22 22 20 21 22 21 21 25 26 26 26 26 27 29
10 12 14 17 18 20 21 22 22 22 22 22 21 20 27 27 28 29 30 30 30 29
11 14 16 19 20 22 23 23 25 24 22 21 22 25 26 28 29 29 29 30 32 31
13 15 18 21 22 22 23 25 24 22 23 23 24 26 28 29 28 28 29 30 30 33
14 17 20 22 22 23 23 21 22 23 24 26 25 26 28 28 29 29 29 30 31 32
15 18 21 21 24 23 20 23 24 23 24 25 26 26 26 29 30 29 30 30 31 28
16 18 21 21 22 24 25 24 25 25 22 23 25 24 27 31 29 29 29 30 28 32
17 20 20 23 24 27 27 24 25 25 23 21 21 25 30 31 31 28 31 28 31 32

GFSNIL_925_spd_024.txt.gz
Wind_Speed
10 9 8 9 9 9 10 10 13 14 14 14 14 15 16 16 16 16 18 17 19 20
9 9 9 9 8 8 9 11 12 13 14 15 16 16 17 17 18 18 18 20 20 22
9 9 9 9 9 9 9 10 12 14 15 16 17 18 18 18 19 19 21 21 23 23
7 8 7 7 8 9 10 11 13 14 16 17 18 19 19 20 19 21 23 23 24 26
6 6 6 7 8 10 11 12 13 15 16 17 18 19 20 20 22 24 25 26 26 27
5 5 6 8 10 10 11 13 14 14 16 18 19 20 20 21 25 25 26 27 27 28
4 5 7 8 9 10 11 13 14 16 17 19 20 21 20 25 26 27 27 28 27 29
5 6 8 9 11 11 13 14 15 17 18 19 20 20 24 25 28 28 29 28 29 28
6 8 9 10 12 14 14 15 16 18 19 21 21 22 24 26 28 28 29 30 30 30
8 9 11 12 13 14 16 17 19 20 21 23 24 23 25 26 27 28 28 29 31 32
8 10 12 14 15 16 17 19 20 21 22 24 24 23 24 26 28 29 28 29 29 32
8 11 14 15 17 18 19 21 22 22 23 24 25 23 23 26 29 29 30 30 30 32
10 12 15 16 18 19 20 22 22 23 22 22 24 22 23 27 28 30 30 32 32 33
11 14 15 17 18 19 21 22 23 23 22 20 20 23 26 27 29 29 31 31 32 32

GFSNIL_925_spd_027.txt.gz
Wind_Speed
11 9 9 9 9 9 9 9 10 11 12 13 14 15 16 17 17 19 20 21 21 23
10 9 8 8 8 8 8 9 10 11 13 14 14 16 17 18 19 20 21 21 23 23
8 8 7 7 8 8 9 10 11 12 13 14 15 17 18 19 21 22 22 24 24 26
7 7 6 7 8 8 9 10 11 12 14 16 17 19 20 21 22 22 25 25 25 27
6 6 7 7 8 8 9 10 11 14 15 17 18 19 20 23 22 25 26 27 27 27
6 6 6 7 8 9 10 12 13 14 16 18 20 21 21 23 24 27 27 28 27 28
5 6 6 7 9 10 12 13 15 16 18 20 21 22 22 22 26 27 28 28 28 28
4 5 6 7 10 11 12 14 16 18 20 21 22 22 23 25 27 28 29 29 28 27
4 5 6 9 11 13 15 17 18 20 22 23 23 24 25 25 27 28 29 28 29 28
4 6 8 11 13 15 17 19 21 22 23 24 25 25 26 26 26 28 27 29 29 30
5 7 10 12 14 17 19 20 22 23 24 25 25 25 26 25 27 27 28 29 30 30
6 9 11 14 16 18 20 21 23 24 25 25 25 25 24 25 27 27 29 28 28 33
7 10 13 16 18 19 20 22 24 25 25 25 25 23 24 26 26 28 29 30 30 31
9 12 14 16 18 20 22 23 23 24 24 24 22 24 26 27 27 27 30 30 32 31

GFSNIL_925_spd_033.txt.gz
Wind_Speed
18 17 14 11 8 7 7 7 9 10 10 11 12 14 16 18 20 19 21 22 21 22
17 14 12 10 8 7 6 7 8 10 12 13 15 16 18 20 21 22 22 24 19 26
16 13 10 8 8 7 6 8 9 11 14 16 17 19 20 21 23 21 25 17 26 27
14 11 8 7 7 7 7 8 11 13 15 17 19 21 21 22 21 23 19 26 25 26
12 9 7 6 6 6 8 9 12 14 17 19 22 22 23 24 25 18 26 26 25 27
10 7 5 5 5 6 9 11 14 17 19 21 23 23 25 23 21 27 24 22 24 27
8 5 4 4 6 8 11 13 16 18 20 22 24 25 22 26 28 25 23 25 28 28
6 4 3 4 7 10 12 15 17 19 20 23 24 21 27 27 27 26 27 29 29 26
5 3 4 6 9 12 14 17 18 20 23 24 25 25 25 26 28 28 28 28 27 27
4 2 4 7 10 13 16 17 20 23 23 25 27 26 27 27 29 29 29 28 29 29
2 2 6 9 12 15 18 20 22 23 25 26 28 25 26 28 27 26 26 26 28 28
2 4 7 11 14 16 19 20 23 25 26 27 25 26 25 26 28 26 26 27 26 29
2 5 9 11 15 17 19 21 24 26 25 23 23 23 24 25 25 25 27 27 26 28
3 7 10 13 16 19 20 24 25 25 27 22 20 24 24 26 26 25 27 26 28 32

GFSNIL_925_spd_036.txt.gz
Wind_Speed
22 20 17 13 10 7 6 6 5 6 7 9 10 12 14 16 17 17 16 19 16 17
20 18 16 12 8 6 5 4 5 6 9 11 13 15 16 17 18 18 19 17 17 23
19 16 13 10 8 6 4 4 6 8 11 14 15 17 17 18 20 19 19 18 23 22
18 14 11 9 7 5 4 5 8 11 13 15 17 19 19 20 21 19 18 23 19 23
16 12 10 7 5 4 5 7 10 12 15 17 19 20 21 21 19 23 25 23 20 23
14 10 8 6 4 4 6 9 11 14 16 18 20 21 21 19 24 24 23 21 22 26
11 8 6 4 4 6 8 11 13 14 16 18 20 22 19 24 25 25 24 24 26 27
10 7 5 3 5 7 9 12 13 15 18 19 22 20 23 24 26 27 29 28 27 26
8 6 4 4 6 9 11 13 14 17 19 21 22 22 22 24 27 28 25 26 28 29
7 5 3 5 7 10 13 14 16 19 20 21 23 21 23 25 27 26 28 28 28 29
6 4 3 6 8 11 14 16 17 19 20 21 23 22 24 25 25 28 27 26 27 26
4 2 4 7 10 12 15 17 18 20 21 22 23 22 23 25 27 25 26 26 25 26
3 2 6 8 11 13 14 17 18 21 22 22 22 22 23 24 25 25 27 25 24 24
2 4 6 8 11 13 15 18 21 22 23 22 21 23 21 23 25 26 26 26 26 30

GFSNIL_925_spd_039.txt.gz
Wind_Speed
27 25 20 16 14 12 9 7 6 6 6 7 9 11 12 13 13 13 13 14 9 14
25 22 20 16 12 11 8 6 5 5 7 9 10 12 13 14 15 16 15 14 16 18
24 20 17 14 12 9 7 5 5 6 8 10 11 14 15 16 17 16 16 19 20 19
22 18 15 12 10 7 6 5 6 8 10 12 14 15 17 17 16 17 21 21 21 21
20 16 13 11 9 6 5 5 7 9 11 13 14 16 17 16 18 20 22 22 22 23
17 14 12 9 7 5 5 6 8 10 12 14 15 17 16 17 19 20 21 23 24 25
15 12 10 8 6 5 6 8 9 10 12 14 15 16 17 19 20 22 23 21 21 24
14 11 9 6 5 5 7 8 8 11 13 15 16 18 18 20 22 22 20 25 27 25
13 10 7 5 5 5 7 8 10 12 14 16 18 19 19 19 22 20 25 27 28 28
12 9 6 4 4 5 8 10 11 14 15 17 19 17 18 20 21 23 26 27 29 29
11 8 5 3 5 7 9 11 13 15 17 18 19 18 19 21 23 26 27 27 27 28
9 7 3 4 6 7 10 12 15 16 18 18 18 18 20 22 25 25 26 24 23 24
8 5 3 4 6 9 11 13 15 17 17 16 18 20 20 22 24 24 25 22 23 23
6 3 3 5 8 10 12 15 16 17 17 17 20 21 20 21 24 26 26 26 25 28

GFSNIL_925_spd_042.txt.gz
Wind_Speed
32 31 26 23 20 17 15 13 11 9 7 7 7 8 8 9 9 10 10 10 7 11
30 28 25 22 18 17 14 12 9 7 6 6 7 9 10 10 11 11 10 11 13 14
28 25 23 20 18 15 13 10 8 6 6 6 7 9 10 11 11 11 13 15 15 17
28 24 21 19 16 14 12 9 7 5 5 7 8 10 12 12 12 15 16 16 18 20
26 23 20 18 15 12 10 7 6 5 6 8 10 12 13 14 14 16 18 19 20 20
24 21 19 16 13 10 8 6 5 5 7 10 12 14 14 13 16 17 18 18 18 22
22 19 17 15 12 9 7 5 5 7 9 11 13 14 14 15 17 18 18 19 23 22
21 18 16 13 10 8 6 5 6 8 10 12 14 16 15 17 18 19 19 22 23 23
20 17 14 11 8 6 5 5 7 10 12 14 15 17 15 17 19 20 22 25 26 25
18 15 12 9 7 5 5 7 9 10 13 16 17 15 16 18 20 22 23 25 27 27
16 14 10 7 6 5 6 8 10 12 15 17 17 16 17 19 21 22 24 26 25 25
15 12 9 6 5 5 6 8 12 14 16 17 17 18 19 21 23 24 26 26 21 23
13 10 8 6 4 5 8 10 13 15 15 16 18 19 19 21 22 23 24 21 23 21
12 9 7 5 5 7 9 12 13 16 18 17 19 20 19 20 22 24 24 24 23 25

GFSNIL_925_spd_045.txt.gz
Wind_Speed
36 37 35 32 29 25 22 19 16 13 11 8 6 6 6 6 7 7 6 6 7 8
36 35 34 30 26 24 21 18 14 11 9 7 5 5 6 6 7 6 7 9 9 10
38 35 32 29 26 22 19 16 13 10 7 5 5 6 7 7 7 7 9 9 11 12
36 34 30 27 23 20 18 14 11 8 5 5 5 6 7 7 7 9 11 11 11 14
36 32 28 25 22 18 16 12 9 6 5 5 6 7 8 8 9 10 12 13 15 14
34 30 26 23 20 16 13 10 7 5 4 5 6 7 8 8 11 12 13 15 14 16
31 28 25 22 18 15 11 9 6 4 5 6 7 8 10 11 13 13 15 16 17 17
29 26 23 20 17 13 10 7 5 4 5 7 9 10 11 12 14 15 16 18 20 18
28 24 21 18 15 11 8 6 4 5 7 10 11 12 11 13 14 15 15 19 19 20
25 22 18 15 12 9 6 5 5 7 9 11 12 12 12 14 14 15 18 20 21 20
23 21 17 13 10 8 5 5 6 8 11 13 13 13 14 16 15 17 19 21 21 20
21 19 15 12 9 6 5 5 8 10 11 13 14 15 16 16 17 18 20 20 19 21
18 16 13 10 7 5 5 7 9 10 12 13 14 17 16 17 17 18 22 20 21 20
16 14 10 8 6 4 6 7 10 13 13 14 16 18 16 17 18 20 21 23 23 24

GFSNIL_925_spd_048.txt.gz
Wind_Speed
27 30 31 33 33 26 19 16 14 12 10 9 7 6 5 3 1 1 2 3 4 6
28 33 34 34 31 25 19 17 14 12 10 8 7 5 3 1 1 1 3 5 6 7
29 35 34 34 25 19 18 16 14 11 9 7 5 3 1 0 1 3 5 6 8 9
30 36 34 27 21 18 17 15 12 10 8 6 4 2 1 2 3 5 6 7 9 11
37 31 28 23 21 18 16 13 11 9 7 5 3 1 2 3 5 7 8 9 11 12
30 26 24 23 20 17 15 13 10 7 6 4 2 1 3 5 7 9 10 11 12 14
26 24 23 21 19 16 14 12 9 6 4 2 1 2 4 7 9 11 12 13 14 16
25 23 22 20 17 15 12 10 8 5 3 2 2 3 7 9 11 13 14 15 16 17
24 22 20 18 16 14 11 9 6 3 2 2 3 7 7 10 12 14 15 17 18 18
22 21 18 16 14 12 9 7 4 3 2 4 5 8 9 11 13 15 16 18 19 20
20 19 17 15 12 11 8 5 3 2 3 5 6 9 11 13 14 15 16 18 19 20
19 18 16 13 12 8 6 3 2 2 4 6 7 10 12 13 15 15 17 18 20 19
17 16 14 13 9 7 4 2 2 3 5 7 8 10 12 13 14 16 19 20 21 21
15 17 15 11 8 5 3 2 3 5 7 6 8 10 12 13 14 17 21 22 23 22

GFSNIL_925_spd_051.txt.gz
Wind_Speed
24 26 27 29 33 28 26 26 20 17 13 11 10 8 6 4 3 0 0 2 4 6
24 26 29 30 28 28 25 24 18 16 13 10 9 7 6 3 2 1 2 4 6 8
25 27 33 35 33 31 26 22 18 15 13 10 7 5 4 2 1 2 4 6 7 9
26 31 33 32 31 24 22 19 16 14 11 9 6 4 2 1 1 4 6 7 9 11
30 32 31 31 26 24 21 17 15 12 10 8 5 3 1 1 4 6 8 9 11 13
30 31 30 30 26 23 19 16 13 11 9 6 4 1 1 3 5 7 10 11 12 14
30 30 29 27 24 21 17 15 12 10 7 5 2 0 2 5 7 10 12 13 14 15
31 30 27 24 22 20 16 13 11 9 6 3 1 1 4 6 9 12 14 14 15 16
30 27 24 23 20 18 15 12 10 7 4 2 1 5 5 7 10 13 15 16 16 18
26 25 22 20 18 16 12 10 7 5 2 1 2 6 6 9 11 14 15 16 17 18
24 23 21 18 16 13 10 8 5 3 1 2 4 9 8 10 12 14 15 17 18 19
22 22 19 17 13 10 8 5 3 1 2 3 4 8 9 12 13 14 16 17 18 20
21 19 18 15 12 9 6 4 1 2 3 5 6 7 9 12 13 15 17 18 21 21
19 19 17 14 9 6 4 1 1 3 5 6 6 8 10 12 13 15 19 20 20 20

GFSNIL_925_spd_054.txt.gz
Wind_Speed
29 29 31 34 35 32 32 31 26 21 19 17 14 13 9 7 4 2 2 1 2 3
31 29 30 32 32 30 32 29 26 22 20 18 14 10 8 6 4 2 2 2 4 6
32 33 32 33 33 33 31 28 26 23 20 16 14 10 8 6 4 4 3 4 6 7
30 32 32 32 33 33 32 29 25 21 18 15 12 9 7 6 3 2 3 6 7 9
31 30 32 32 33 33 30 25 23 20 16 13 11 8 6 4 2 4 5 8 10 11
30 31 30 35 31 31 28 25 21 18 15 12 9 6 3 2 2 5 7 10 11 13
29 31 32 33 31 30 27 23 19 17 14 10 7 4 2 1 4 6 9 11 13 14
30 33 33 33 30 28 25 20 17 15 11 8 6 3 2 4 6 8 11 13 14 14
33 33 33 31 29 26 23 19 15 12 9 6 3 2 4 6 9 10 12 15 15 17
32 31 29 29 27 23 20 17 13 10 7 4 1 4 6 7 11 12 13 16 17 18
31 30 29 27 24 21 17 13 10 7 4 3 3 6 8 9 11 12 14 16 18 18
29 28 28 25 22 18 15 11 7 4 3 2 2 6 9 10 14 14 15 16 18 21
25 28 26 23 19 15 11 8 5 3 3 4 6 4 8 10 14 16 17 19 22 20
25 25 23 19 15 12 9 7 4 3 3 5 5 7 8 11 14 16 21 22 23 23

GFSNIL_925_spd_057.txt.gz
Wind_Speed
39 37 36 36 35 32 32 33 30 30 26 23 19 15 12 11 8 8 6 5 3 2
35 36 34 32 31 30 30 33 33 30 26 21 18 14 13 10 7 5 5 2 2 3
32 29 29 30 31 30 29 31 32 28 25 22 19 15 10 11 8 5 3 1 3 5
31 31 31 32 31 31 31 33 30 29 26 21 18 15 11 9 7 5 2 3 6 7
32 31 32 32 30 32 33 32 29 27 24 20 16 12 9 7 4 2 2 5 7 9
32 31 31 34 32 32 31 30 28 25 22 19 15 12 8 5 3 2 3 6 8 10
31 30 29 32 32 33 32 29 27 23 19 16 14 10 8 3 2 3 5 7 9 11
30 31 31 32 33 33 31 29 25 22 17 13 10 8 4 1 2 5 8 9 10 11
29 30 30 33 33 34 30 26 23 18 14 12 9 5 3 3 5 8 9 11 13 13
29 27 29 32 31 30 26 23 20 15 12 9 6 4 3 5 7 9 10 12 14 16
32 28 27 27 28 27 22 19 17 13 9 6 5 2 3 4 8 10 11 11 13 17
30 22 30 28 25 23 20 17 13 10 7 5 3 1 4 7 11 13 13 13 16 18
25 26 26 27 24 20 17 14 10 8 5 4 3 1 4 7 10 14 17 19 19 21
25 26 25 24 20 16 13 11 9 7 5 3 2 4 6 8 11 13 18 21 23 23

GFSNIL_925_spd_060.txt.gz
Wind_Speed
40 41 39 41 42 39 39 38 34 29 28 27 25 22 19 17 14 9 8 8 6 5
37 38 40 39 38 39 36 34 32 28 27 26 23 21 19 16 13 10 8 7 5 4
34 38 38 37 37 35 33 32 32 29 27 25 22 19 18 16 13 9 6 4 3 2
27 30 31 33 33 33 33 33 32 32 29 25 22 19 17 13 12 10 6 4 4 4
28 28 30 32 32 31 34 32 35 33 28 24 20 17 15 13 10 7 4 4 6 6
30 31 29 28 31 31 32 33 32 30 28 24 20 17 13 10 8 4 4 3 7 6
27 27 29 30 30 30 32 33 31 27 23 21 18 15 12 9 6 5 2 5 7 7
26 27 27 29 29 30 31 31 29 27 21 17 12 10 9 6 3 0 3 5 5 6
27 27 29 28 29 30 32 30 27 22 19 16 11 8 6 4 2 2 4 6 7 8
27 28 29 30 32 30 28 25 24 21 16 15 12 6 4 2 2 4 5 7 9 10
28 31 33 32 30 28 26 22 19 16 15 13 9 5 3 2 5 6 8 8 9 12
34 32 28 29 26 24 23 20 18 14 11 9 7 3 2 4 7 9 11 11 12 14
30 28 23 21 23 21 19 15 12 10 8 7 6 4 3 6 9 11 11 14 17 17
26 25 22 21 19 17 15 14 12 10 8 5 5 2 4 5 7 10 14 18 20 20

GFSNIL_925_spd_063.txt.gz
Wind_Speed
35 37 38 36 39 43 42 41 40 37 34 31 28 26 23 21 18 16 13 13 10 8
26 32 35 34 35 34 37 37 35 33 31 29 27 26 24 21 17 15 13 11 9 5
22 27 31 32 32 33 34 34 33 31 30 29 27 26 23 20 17 14 12 9 8 6
21 24 27 28 29 29 31 31 33 31 31 30 28 26 23 19 16 12 9 8 6 5
20 21 24 25 25 25 27 28 30 30 29 29 26 22 20 16 12 9 6 5 6 4
17 20 22 21 22 24 25 26 27 29 28 25 23 20 17 15 12 8 4 2 6 3
16 17 19 21 22 24 26 27 27 27 27 25 22 19 15 12 7 4 3 4 5 5
21 20 22 25 25 25 27 28 29 30 28 22 19 16 15 10 5 3 1 3 3 4
27 28 27 28 30 30 31 33 32 29 26 22 16 11 7 7 5 2 1 2 4 5
26 29 27 29 30 30 31 31 28 24 18 17 14 10 8 4 3 2 2 3 5 7
25 30 28 31 31 30 25 25 23 19 14 12 10 10 8 5 4 1 4 6 7 10
26 30 33 32 30 27 24 20 19 13 15 13 11 6 3 2 2 6 6 7 10 13
29 31 29 29 26 23 21 17 14 11 12 9 8 4 2 5 5 5 7 10 14 14
30 30 27 26 21 20 16 15 13 12 10 8 6 3 2 1 4 7 10 15 16 16

GFSNIL_925_spd_066.txt.gz
Wind_Speed
28 32 35 36 36 38 38 40 40 38 39 37 34 32 30 28 25 22 19 17 14 12
18 27 32 33 33 32 30 32 31 36 36 34 31 30 28 27 24 21 19 16 13 10
17 21 26 28 28 29 29 28 27 30 31 30 29 27 27 25 21 20 17 16 15 10
16 18 20 21 22 22 22 23 25 28 28 28 27 26 25 22 19 17 16 15 11 9
12 12 12 12 14 16 18 19 22 24 25 27 27 25 24 22 18 16 11 8 8 6
8 10 9 9 12 14 16 18 21 24 25 24 25 24 20 18 17 17 14 9 6 2
8 11 14 14 15 17 20 24 24 24 25 26 25 25 24 22 18 13 8 6 3 2
15 18 22 22 21 22 23 25 28 30 31 29 27 22 18 14 11 7 5 3 0 4
23 24 26 27 28 28 28 27 29 30 30 27 24 18 13 11 11 6 3 2 3 2
24 27 26 26 29 30 33 34 33 30 26 24 18 13 11 6 5 4 3 2 1 3
23 26 24 24 28 29 35 32 29 25 22 20 17 12 9 10 8 4 3 3 5 8
21 28 26 29 28 27 29 27 24 21 19 15 13 9 8 7 3 4 4 5 8 11
21 28 28 27 27 25 26 25 21 18 15 12 13 8 4 1 1 2 5 8 10 11
23 27 27 27 25 24 22 19 16 16 12 11 9 8 6 5 5 7 8 11 13 14

GFSNIL_925_spd_069.txt.gz
Wind_Speed
19 21 26 32 34 34 35 36 35 38 39 38 37 36 36 35 35 34 29 23 21 21
12 16 25 26 30 31 30 29 28 29 33 33 31 30 29 30 30 27 24 21 17 15
15 16 18 22 24 24 24 23 22 22 26 28 27 27 27 26 26 25 19 16 17 13
15 15 15 15 15 14 15 16 16 18 21 23 24 23 25 25 22 21 21 18 16 13
8 9 7 7 7 7 9 11 14 17 20 21 23 24 23 23 22 23 22 18 16 13
3 1 2 4 6 8 10 12 13 17 21 23 24 25 25 26 25 21 18 13 10 8
6 7 9 11 13 15 16 17 19 20 22 25 28 29 29 26 22 18 14 13 11 8
14 15 17 18 19 20 20 20 21 25 25 27 27 26 27 25 23 19 14 9 5 1
17 19 21 21 22 22 23 25 26 28 29 28 28 24 22 20 17 13 9 7 4 4
17 20 21 22 26 26 25 26 29 30 28 27 21 17 16 16 14 11 8 7 5 2
14 18 17 20 27 27 25 25 24 27 26 24 19 17 17 16 14 12 9 5 2 2
15 17 18 24 27 26 29 27 24 24 22 21 18 15 15 13 10 8 5 2 2 4
17 20 22 25 26 26 26 24 22 21 18 16 15 11 9 8 5 4 3 4 7 8
20 22 22 24 23 24 23 21 18 17 15 14 12 10 8 4 4 5 7 7 7 9

GFSNIL_925_spd_072.txt.gz
Wind_Speed
12 20 24 26 25 22 22 22 21 23 27 30 27 26 23 23 25 26 27 22 23 24
11 12 17 21 22 26 22 21 16 17 23 26 28 25 24 23 20 19 18 22 24 20
12 12 12 13 16 15 22 22 20 19 18 20 24 25 24 22 21 22 18 17 13 16
9 10 10 9 8 9 13 14 13 13 14 16 18 21 22 21 21 20 19 15 16 15
5 4 3 3 4 5 6 6 6 7 8 10 12 16 19 21 20 22 22 21 20 20
7 5 3 2 2 3 5 5 6 7 8 11 14 16 18 22 25 24 24 24 20 17
9 9 9 9 10 10 9 11 12 12 13 13 15 18 21 24 27 27 24 19 16 12
12 12 12 14 14 14 14 14 14 17 18 19 19 20 23 24 22 22 20 16 13 10
15 14 16 17 17 19 18 20 20 23 24 23 23 17 18 19 19 16 15 13 10 8
15 18 16 15 17 18 20 24 25 24 24 23 20 17 14 14 16 13 10 10 8 6
13 15 15 15 18 20 25 28 27 25 24 23 19 17 14 13 15 11 8 7 5 3
12 18 17 21 24 23 26 26 25 24 22 21 17 15 12 10 9 7 5 4 4 3
17 22 24 25 26 25 25 26 25 24 19 15 12 8 9 8 6 3 3 2 1 2
21 24 25 25 23 24 23 19 16 16 14 11 9 7 6 5 3 2 3 2 2 3

GFSNIL_925_spd_075.txt.gz
Wind_Speed
10 15 19 21 20 18 17 18 18 20 22 27 29 30 30 28 28 26 27 25 20 18
10 11 12 15 17 19 22 21 18 17 19 20 24 26 29 30 27 24 21 21 21 16
10 10 11 10 12 13 15 16 19 17 14 16 20 23 25 25 23 24 23 23 21 16
8 8 8 8 8 6 8 10 12 12 10 10 10 12 16 18 19 19 18 15 16 16
7 6 4 4 4 3 3 4 4 4 4 4 6 9 12 14 14 15 16 18 19 18
8 7 7 6 6 6 6 7 8 7 7 5 4 5 7 9 11 13 14 17 17 18
11 11 10 10 10 10 9 11 11 13 12 12 11 11 11 13 15 18 17 15 13 14
11 11 12 14 15 15 16 16 15 16 15 15 14 14 15 17 17 17 18 14 12 10
12 14 16 18 19 20 21 19 19 21 22 23 20 17 18 17 16 15 14 14 10 11
12 15 15 16 18 19 21 21 23 23 22 23 21 17 16 14 15 12 12 12 8 8
10 13 15 16 21 22 23 24 24 25 25 24 19 16 16 14 13 11 9 7 5 5
11 15 16 19 20 21 23 24 23 21 20 20 18 16 13 11 9 8 6 5 7 5
16 20 21 21 22 22 22 23 22 19 16 13 13 10 9 8 9 8 6 3 2 4
19 22 23 22 22 20 16 16 15 14 12 11 10 9 9 8 6 4 3 2 2 2

GFSNIL_925_spd_078.txt.gz
Wind_Speed
5 9 13 14 12 13 13 20 19 19 19 18 21 23 27 30 33 32 28 31 26 23
7 7 8 9 11 9 10 14 14 14 16 17 17 19 22 25 28 29 29 28 27 23
7 7 8 8 8 7 6 10 13 12 8 11 12 14 17 21 21 23 22 21 21 20
7 4 4 3 2 4 4 6 7 8 8 8 7 8 9 10 9 10 11 11 12 11
9 8 7 6 5 5 3 1 1 2 3 2 2 3 4 5 5 6 7 8 7 8
10 10 9 8 6 9 11 10 9 7 5 5 5 5 5 4 5 6 6 7 8 10
10 9 9 9 9 9 9 9 9 9 9 9 9 9 9 10 11 12 14 14 13 12
10 11 12 14 14 15 15 15 15 16 16 15 14 13 13 15 18 19 19 16 16 12
13 14 14 15 17 18 19 19 20 21 21 22 21 17 18 19 20 19 17 16 15 12
15 15 14 16 18 19 20 21 22 23 23 23 19 17 16 16 16 15 14 13 11 9
12 14 16 18 19 20 21 22 23 23 22 22 17 17 16 16 16 16 13 10 8 5
12 15 17 19 20 20 22 22 21 19 21 21 17 14 13 13 12 11 9 8 8 5
14 17 18 20 22 22 21 21 19 18 16 14 16 12 12 11 10 9 8 6 4 4
17 19 20 22 21 21 20 18 16 15 13 11 11 11 10 7 6 5 4 3 1 3

GFSNIL_925_spd_081.txt.gz
Wind_Speed
3 4 4 5 8 7 5 14 17 18 18 14 13 16 18 21 24 27 30 27 29 32
3 3 3 3 3 5 5 5 7 10 10 14 13 14 16 17 19 20 23 23 26 27
1 2 4 5 4 4 3 4 5 8 8 9 12 15 13 14 15 17 17 16 15 14
2 1 1 1 3 2 2 3 4 5 6 7 6 7 8 8 8 8 6 5 6 5
7 6 6 6 4 4 4 4 4 5 5 4 4 5 4 3 3 3 3 3 3 4
6 6 5 5 7 6 7 6 5 5 4 3 3 3 3 3 4 4 4 4 6 8
7 6 7 6 7 7 7 8 8 8 8 8 8 8 8 8 9 10 10 11 11 11
8 8 9 11 11 12 12 13 14 15 15 15 13 12 12 13 15 15 16 17 15 12
11 12 13 14 15 16 17 17 18 18 18 19 17 14 15 17 19 18 17 17 15 13
12 13 14 15 17 18 19 20 21 21 21 21 18 16 16 16 16 14 14 14 11 9
12 13 14 17 18 20 20 20 21 22 22 21 18 15 15 15 16 14 13 11 9 8
12 14 14 17 19 19 21 20 20 20 21 21 17 15 14 14 13 12 11 9 6 5
13 15 17 19 21 22 21 22 20 19 17 16 16 12 12 11 10 10 8 7 6 4
16 18 19 21 21 21 21 19 17 16 14 14 13 12 10 8 7 6 5 3 1 0

GFSNIL_925_spd_084.txt.gz
Wind_Speed
7 8 10 11 12 11 10 14 21 21 20 19 20 20 16 14 16 18 21 24 26 27
5 6 7 7 10 11 12 10 11 17 20 19 16 13 12 16 17 19 17 14 15 19
2 4 5 5 6 7 8 8 9 10 13 14 14 14 17 16 15 13 11 8 8 8
2 3 3 4 5 6 6 6 7 8 8 8 8 8 9 8 7 6 3 2 2 3
4 3 3 4 5 5 4 4 5 5 5 5 5 5 4 5 3 3 4 5 6 7
4 4 4 6 7 8 8 8 7 6 6 5 4 5 5 4 5 5 5 5 5 7
5 5 5 5 6 6 6 6 6 6 6 7 7 8 9 9 10 10 10 11 11 10
6 6 7 8 8 9 9 10 11 12 12 12 11 11 12 13 15 15 16 15 14 13
8 9 9 11 12 13 14 14 14 15 15 16 16 13 13 14 16 16 16 17 16 15
11 11 11 12 14 16 17 17 19 19 19 19 17 15 15 14 16 16 15 14 12 10
11 12 13 15 17 18 18 19 21 20 20 19 15 14 14 14 15 15 13 11 10 9
12 13 13 15 16 16 17 19 19 19 19 18 15 13 13 14 14 13 12 10 8 7
13 14 16 16 18 18 19 20 19 20 17 15 14 11 10 10 11 11 9 8 8 5
14 15 17 18 18 20 21 20 18 18 15 14 11 8 7 6 6 5 6 5 3 2

GFSNIL_925_spd_087.txt.gz
Wind_Speed
9 10 12 13 15 15 14 14 15 21 23 21 20 18 17 15 12 12 13 15 17 20
8 8 9 10 13 14 15 15 15 15 19 19 20 19 17 14 11 10 11 12 13 14
4 6 7 9 9 10 10 10 11 10 12 15 18 16 16 15 11 11 12 11 8 6
2 3 4 5 6 6 6 6 7 7 8 9 11 12 12 11 9 11 8 4 5 4
2 2 2 3 4 5 6 6 6 6 6 6 7 8 7 7 7 7 5 4 6 6
4 3 3 3 5 5 5 5 5 5 5 6 6 7 8 9 9 7 7 6 7 7
4 3 4 5 5 5 5 5 5 5 7 7 8 9 10 9 10 10 9 9 9 8
5 5 5 6 7 7 7 7 8 8 9 9 8 9 11 12 14 14 15 13 13 12
5 6 6 7 7 8 9 10 10 10 11 11 12 10 11 14 16 17 17 18 17 15
8 8 8 9 10 11 12 13 14 14 15 16 15 13 14 14 17 18 17 15 13 11
10 10 10 11 12 14 15 16 16 17 17 18 15 14 15 15 17 17 14 12 10 9
12 13 13 13 14 15 15 17 18 17 17 18 15 12 13 14 15 15 13 10 8 7
13 13 14 14 15 16 17 18 17 17 16 14 14 12 12 11 12 12 10 8 7 4
14 14 14 15 15 18 19 19 18 17 14 13 11 11 9 8 7 6 7 5 4 3

GFSNIL_925_spd_090.txt.gz
Wind_Speed
13 14 15 14 14 14 14 13 13 14 17 20 21 21 20 20 19 17 16 14 13 13
7 7 7 8 9 11 12 14 15 15 15 16 20 21 19 17 17 15 14 11 9 9
7 8 9 10 10 11 11 11 12 12 11 12 16 17 19 19 18 16 13 11 8 9
6 5 5 6 6 6 6 7 7 7 5 7 9 10 15 15 14 12 10 8 7 7
4 3 2 3 4 5 5 5 5 5 5 6 7 8 8 9 8 8 8 7 6 6
4 4 3 2 2 3 4 4 3 3 4 4 5 6 7 7 8 9 8 7 8 7
4 3 3 4 3 4 3 3 2 2 2 3 5 6 8 9 10 10 10 9 8 7
4 3 4 4 5 5 5 4 5 5 5 5 5 7 8 10 12 13 13 12 11 11
5 4 4 4 5 5 6 6 7 8 7 7 7 8 11 13 16 16 17 18 16 15
7 6 6 7 7 8 8 9 9 10 11 13 13 11 12 15 16 17 17 17 15 13
9 8 8 8 8 9 10 11 13 14 14 15 14 12 13 15 17 18 16 14 12 11
11 11 10 10 11 11 12 13 14 15 16 16 14 13 14 16 17 17 15 12 10 9
11 12 13 12 13 13 13 15 15 15 13 13 15 12 13 13 14 14 13 11 10 7
13 13 13 14 14 15 16 17 16 16 14 14 12 11 11 11 9 10 11 9 8 6

GFSNIL_925_spd_093.txt.gz
Wind_Speed
19 18 16 14 13 14 13 12 12 12 15 17 19 19 20 21 21 20 20 20 19 18
13 13 14 12 9 8 9 10 11 12 13 13 16 18 20 21 21 21 20 18 17 16
9 9 8 7 8 8 9 10 11 12 13 13 15 16 17 20 21 21 20 19 17 16
6 5 5 5 5 6 6 7 8 9 9 9 8 9 12 17 18 23 19 16 14 12
3 3 1 2 3 4 4 5 5 5 6 7 7 9 11 13 14 13 14 12 12 11
4 2 2 1 1 3 4 4 4 3 4 5 7 8 10 11 11 11 11 12 11 11
6 4 3 2 2 3 3 3 3 3 2 2 4 6 8 10 11 13 12 11 11 9
6 5 5 5 5 5 5 5 6 5 5 6 6 7 9 11 12 13 13 12 12 11
6 5 5 5 5 5 5 6 6 6 7 7 7 9 11 12 15 16 17 18 17 15
7 7 6 6 6 6 6 6 6 7 8 9 10 9 12 14 17 18 17 16 16 16
9 8 7 7 7 6 7 7 8 10 10 11 11 11 12 16 18 18 16 15 14 13
10 9 8 9 10 9 10 10 11 12 13 12 12 12 13 17 19 19 17 15 13 12
11 11 11 11 11 11 12 13 14 14 12 12 14 12 14 16 19 19 17 14 12 9
12 11 11 12 12 14 14 15 15 14 13 13 14 13 13 13 14 15 16 14 12 9

GFSNIL_925_spd_096.txt.gz
Wind_Speed
20 21 22 22 24 17 20 19 21 17 16 17 19 19 17 20 20 19 21 20 19 17
17 17 17 15 14 13 12 14 14 15 15 15 14 15 16 18 21 20 21 19 17 16
10 10 10 10 9 9 10 10 11 11 11 11 12 13 13 16 19 20 21 22 19 20
7 6 6 5 6 6 6 7 8 9 9 9 10 11 12 15 18 19 19 21 20 18
6 6 5 3 2 3 3 4 4 5 6 7 8 8 8 8 10 15 16 17 15 15
6 5 5 4 3 2 1 1 2 3 4 5 6 8 9 9 9 11 12 12 11 11
6 5 4 3 2 1 1 0 1 1 2 3 4 6 8 8 9 10 9 9 10 10
4 4 3 3 2 1 1 2 3 3 4 4 4 6 6 7 7 8 10 10 10 10
4 3 2 1 2 2 2 2 3 4 5 4 6 8 10 9 11 11 12 14 13 12
5 4 3 2 2 3 3 2 2 3 4 4 4 5 8 11 12 14 15 15 16 14
7 6 6 5 4 4 5 6 5 5 6 6 5 7 8 12 15 17 16 14 12 13
9 8 7 7 7 6 7 8 8 8 9 8 8 8 11 16 17 14 12 12 11 10
10 10 9 8 9 9 8 9 11 10 8 8 9 11 13 14 12 13 12 10 11 10
12 11 9 9 9 10 11 11 11 12 11 10 10 10 12 12 11 12 12 11 9 8

GFSNIL_925_spd_099.txt.gz
Wind_Speed
22 23 23 19 16 22 21 26 20 28 23 26 26 32 35 33 27 27 29 26 23 20
20 20 23 24 24 27 28 30 27 26 19 19 19 21 21 20 19 19 20 20 21 21
12 11 12 10 12 13 15 13 14 13 9 9 10 12 12 15 19 21 22 23 23 20
7 6 6 8 6 8 7 7 7 7 6 7 9 9 12 13 14 19 21 22 22 24
8 8 6 5 5 4 4 3 4 5 6 7 8 10 9 8 11 13 17 18 16 18
8 8 6 6 5 4 3 2 1 2 4 5 7 7 8 8 10 10 9 11 13 14
8 8 7 6 5 4 4 3 3 2 2 3 4 5 6 8 8 8 8 9 9 9
8 8 7 6 6 5 4 3 3 3 2 2 3 4 4 4 4 6 6 8 9 10
8 7 6 6 5 5 4 3 3 3 2 2 4 7 8 7 8 9 10 9 8 7
8 7 6 5 4 3 2 1 2 3 4 2 3 5 5 8 8 9 10 12 12 11
8 7 7 6 5 4 4 3 1 3 4 4 3 2 4 5 8 11 12 12 11 12
7 7 6 5 6 5 5 6 5 5 4 4 4 3 6 9 12 13 12 10 10 9
8 8 8 7 8 7 5 5 5 5 4 4 6 6 7 9 12 11 10 9 10 8
8 7 7 6 7 6 7 6 6 6 6 6 6 7 9 9 9 11 11 11 10 9

GFSNIL_925_spd_102.txt.gz
Wind_Speed
22 19 13 24 28 23 22 17 17 14 12 14 14 23 22 23 23 20 21 22 30 26
23 21 23 28 24 23 15 14 14 13 7 15 18 26 33 33 28 26 24 25 26 29
27 25 29 29 29 28 26 24 23 21 22 25 21 21 19 14 15 16 17 19 20 20
13 12 13 15 15 14 14 14 12 12 12 13 13 13 13 14 14 15 18 19 21 23
12 12 13 13 11 10 11 13 12 11 11 12 13 13 13 12 13 15 17 17 20 20
13 14 12 11 12 11 10 7 8 8 7 6 6 7 8 9 10 10 12 13 15 17
13 13 12 11 10 10 9 7 6 5 3 3 3 4 6 7 8 9 10 9 11 13
14 13 12 11 10 9 8 6 4 3 2 2 4 6 6 6 7 8 8 9 10 11
12 11 10 9 8 7 6 5 3 3 2 3 6 8 8 8 9 9 9 10 10 9
12 12 10 10 9 8 7 5 4 3 4 5 7 9 9 11 10 11 11 11 11 11
13 12 11 11 10 9 8 7 7 6 5 5 5 5 7 6 9 10 11 12 12 12
12 12 11 11 11 10 9 8 7 5 5 5 5 5 4 5 9 11 11 11 12 12
14 13 12 10 10 8 7 7 7 7 6 6 6 6 6 6 9 11 11 11 10 9
12 12 11 11 8 6 8 7 7 7 7 7 6 8 6 7 9 10 11 11 13 11

GFSNIL_925_spd_105.txt.gz
Wind_Speed
19 18 19 19 17 18 16 14 5 20 16 14 15 12 10 12 12 15 18 21 24 28
19 18 20 19 17 15 16 15 16 21 22 15 15 14 17 17 19 19 22 24 25 27
20 20 19 19 22 22 15 13 12 18 20 20 18 16 17 19 22 21 16 16 19 19
21 17 20 22 22 21 18 19 22 25 26 23 20 21 22 19 18 17 20 19 19 18
14 13 15 14 13 14 15 13 15 17 17 17 18 17 17 17 17 17 18 20 20 20
13 12 9 10 12 11 12 12 13 13 12 11 12 13 13 13 13 14 14 14 15 14
14 13 14 13 12 12 11 11 11 9 7 7 7 7 7 8 10 11 12 12 12 14
14 14 13 12 12 12 11 9 8 7 6 5 6 6 7 8 9 10 10 11 11 12
16 15 14 13 13 12 11 10 8 7 6 6 6 7 6 8 9 9 10 10 11 12
15 14 14 13 13 12 10 8 7 7 7 6 6 8 8 9 10 12 12 12 11 11
15 14 14 13 12 10 9 8 8 7 5 6 6 9 9 10 8 10 10 9 9 9
15 15 14 12 11 10 8 7 7 7 8 8 9 8 7 6 7 7 8 8 9 9
14 13 13 12 12 10 9 10 11 10 10 9 8 6 7 6 6 8 8 8 8 9
11 11 11 11 11 11 11 10 9 10 10 9 8 8 8 7 9 11 10 9 9 9

GFSNIL_925_spd_108.txt.gz
Wind_Speed
21 20 19 18 16 17 18 15 12 11 12 12 12 12 13 12 9 11 7 11 16 14
19 18 19 18 18 16 15 15 13 14 14 17 14 15 15 15 18 17 19 17 19 20
21 18 17 17 16 15 16 15 16 19 19 17 17 16 13 15 14 16 18 20 23 23
19 18 16 17 15 16 16 13 14 14 15 15 14 16 17 17 15 14 13 15 16 18
18 16 17 17 17 17 16 15 14 15 16 17 18 18 14 13 12 11 13 14 17 20
16 15 12 12 11 11 12 10 8 8 7 7 9 11 11 11 10 10 12 13 14 16
13 11 11 10 8 8 7 8 7 5 5 7 7 8 7 8 9 10 11 13 15 16
12 12 11 11 9 8 7 5 5 6 5 4 5 5 6 7 9 10 11 12 13 14
17 15 13 11 11 10 8 7 7 6 5 4 5 6 6 8 9 9 10 11 12 13
16 14 13 12 11 9 9 7 6 5 4 5 7 9 9 11 11 12 13 14 15 14
13 13 12 11 10 9 8 7 6 6 6 7 8 10 10 10 9 10 10 11 12 12
12 13 13 12 10 9 8 8 8 8 9 10 9 9 7 7 8 9 9 10 10 10
12 13 12 10 10 10 10 10 10 11 11 10 9 8 6 9 8 9 9 9 9 8
12 11 10 10 11 10 10 11 12 12 11 10 11 10 8 10 8 9 9 10 11 10

GFSNIL_925_spd_111.txt.gz
Wind_Speed
28 30 28 26 27 24 22 20 13 12 12 13 13 13 10 10 9 12 13 9 5 6
18 15 16 15 14 12 11 11 11 9 9 9 9 9 11 11 11 12 14 16 14 13
16 13 14 15 14 13 12 12 9 8 10 11 10 11 10 9 9 9 11 15 16 14
16 13 13 13 12 10 10 10 11 12 11 12 11 12 12 11 11 13 12 9 10 11
15 13 12 12 12 13 12 12 11 11 11 12 12 12 13 10 8 8 10 12 12 14
13 12 12 10 10 8 7 8 8 9 9 9 9 8 7 6 5 5 6 8 9 11
11 9 7 6 7 6 6 6 6 6 7 6 5 5 4 2 0 2 4 7 9 10
10 9 8 6 6 7 7 7 7 6 6 6 4 2 1 1 2 3 4 4 8 9
12 12 12 12 11 10 9 9 8 7 6 4 3 2 3 3 3 5 7 9 10 12
12 13 12 11 11 10 9 8 7 5 3 2 1 4 6 6 7 8 9 10 11 11
12 11 10 10 9 9 7 7 6 4 3 2 3 6 7 7 6 7 8 8 9 11
11 11 11 11 10 9 8 7 6 4 4 5 6 8 8 7 6 7 7 8 7 8
11 11 11 11 10 8 7 6 6 6 7 8 8 7 6 6 8 8 7 6 6 7
10 10 9 9 8 8 7 6 7 8 9 8 8 7 6 7 8 8 8 7 7 7

GFSNIL_925_spd_114.txt.gz
Wind_Speed
26 24 28 27 22 22 20 30 32 29 29 29 27 25 21 16 9 8 8 6 7 7
24 26 27 33 34 25 32 22 24 21 14 13 12 11 9 7 7 7 6 6 7 11
26 25 22 20 21 19 17 17 17 15 13 13 12 12 9 8 5 5 3 4 7 8
20 18 19 19 19 17 15 15 11 10 10 12 13 11 10 9 7 6 4 4 5 5
19 20 19 18 17 14 12 9 8 7 8 8 9 8 6 5 5 6 6 6 5 3
14 14 14 13 12 11 10 9 9 9 9 8 6 6 6 5 4 3 1 1 2 4
11 10 10 9 7 7 6 7 8 9 10 9 9 8 7 6 5 4 3 2 3 5
10 10 10 10 9 9 10 11 11 12 12 11 10 9 9 7 6 4 3 2 2 4
13 12 11 11 12 13 14 14 13 13 13 13 11 10 8 7 5 5 2 1 3 5
13 14 13 13 14 13 13 13 13 13 12 11 9 6 6 4 3 2 3 4 5 6
13 14 15 15 14 13 13 13 13 11 10 9 8 5 1 1 2 3 3 4 5 6
11 11 11 11 10 10 9 8 8 6 5 4 2 2 4 3 2 1 2 3 3 3
11 11 12 12 12 9 9 9 9 9 6 4 2 5 5 4 1 2 3 3 3 3
9 10 10 11 11 11 10 10 9 6 5 4 4 6 6 6 4 4 4 5 5 5

GFSNIL_925_spd_117.txt.gz
Wind_Speed
8 9 4 10 27 23 18 19 9 10 11 12 13 16 21 20 17 16 12 9 3 3
15 16 14 12 7 8 7 18 19 14 17 17 19 22 20 17 13 9 7 5 4 1
24 23 23 24 26 19 21 22 22 23 21 25 22 18 15 12 10 9 7 6 3 2
19 23 24 30 29 22 19 19 20 20 21 19 16 16 14 13 11 9 8 6 4 4
23 19 21 22 25 23 22 21 20 19 18 17 17 15 13 12 11 9 8 6 5 4
21 23 25 24 23 22 22 19 17 16 17 17 17 16 15 13 11 10 9 7 6 5
21 20 21 18 17 16 16 16 16 16 17 17 16 15 14 13 12 11 9 7 6 4
20 19 18 17 16 15 13 13 13 16 16 16 15 14 14 13 12 10 10 9 6 3
19 18 17 16 16 15 16 16 16 16 16 16 15 14 13 12 12 11 9 7 5 3
17 17 17 18 19 19 19 19 19 18 17 17 16 14 12 11 10 10 9 7 6 4
15 17 17 18 18 19 19 19 19 18 16 15 13 13 11 9 8 8 7 5 4 2
16 18 18 19 19 18 19 18 17 16 15 13 12 8 7 9 9 7 5 5 3 3
14 15 16 16 16 15 16 16 15 15 13 11 10 8 7 8 9 9 8 5 5 6
10 11 13 15 15 17 17 17 16 14 13 12 11 12 13 11 9 6 4 5 6 6

GFSNIL_925_spd_120.txt.gz
Wind_Speed
16 13 22 25 24 25 25 24 24 19 16 15 14 15 14 10 10 12 13 13 13 10
21 19 15 13 20 29 27 28 23 20 14 12 13 13 12 14 14 8 8 11 8 7
15 13 16 12 9 24 26 24 19 18 11 13 15 14 11 8 10 13 11 9 9 8
22 18 21 23 20 19 22 24 17 21 22 22 18 19 14 16 16 13 12 13 11 7
24 23 19 21 24 21 16 18 22 23 19 20 17 17 17 17 16 15 14 12 10 9
19 20 22 25 24 24 16 18 21 21 23 22 21 20 17 16 16 16 15 12 10 9
21 21 21 24 24 21 21 22 22 20 19 20 20 19 18 18 16 15 13 12 10 9
20 19 20 20 21 21 19 17 17 18 17 18 18 19 20 18 17 16 14 13 11 8
19 18 17 16 16 17 17 17 18 19 19 20 19 19 18 18 17 16 14 13 10 8
16 17 16 16 15 18 19 19 19 18 18 18 18 19 18 17 17 17 15 13 12 9
13 13 14 16 16 16 16 16 18 18 18 18 18 19 18 16 14 13 13 11 9 7
15 15 15 14 15 16 18 17 17 19 17 16 16 17 16 14 13 13 12 10 9 8
12 14 15 17 17 17 15 16 16 17 16 15 14 15 14 14 13 12 11 10 10 10
10 11 11 13 14 15 15 15 14 13 13 13 12 11 13 13 11 8 9 9 9 10